Zurück zum Katalog

STARLINK-31845

AktivKommunikationVLEO
NORAD 60129·PAYLOAD·🇺🇸 United States

Gestartet Jun 24, 2024 von Vandenberg Space Force Base

Loading…

Nächste Überflüge (nächste 24 Stunden)

TLE

AktuellSource: CelesTrak SupGP

Epoche: Sep 14, 2026, 21:27 UTC

1 60129C 24118S   26257.89423611  .00038148  00000+0  11269-2 0  2571
2 60129  53.1583 223.8155 0001474  94.4976 195.3792 15.34377839    13

Verfolge STARLINK-31845 in Echtzeit mit AllMySat

Download on the App Store